Torna al catalogo

HULIANWANG DIGUI-120

AttivoComunicazioniLEO
NORAD 67060·PAYLOAD·🇨🇳 China

Lanciato Dec 11, 2025 da Wenchang Space Launch Site

Loading…

Prossimi Passaggi (prossime 24 ore)

TLE

AggiornatoSource: Space-Track

Epoca: Sep 14, 2026, 21:41 UTC

1 67060U 25295B   26257.90406466 -.00000114  00000-0  21149-4 0  9997
2 67060  50.0039  63.8709 0000852  63.4598 296.6362 13.29328084 37432

Traccia HULIANWANG DIGUI-120 in tempo reale con AllMySat

Download on the App Store